Location: Newark
(52.4787°S, 179.0532°W)
Time: 04:10:02
(UTC+00:00)

Transit 2A - Visible Passes

Search period start: 22 January 2021 00:00
Search period end: 01 February 2021 00:00
Orbit: 598 x 960 km, 66.7° (Epoch: 21 January)

Date Brightness Start Highest point End Pass type
(mag) Time Alt. Az. Time Alt. Az. Time Alt. Az.
22 Jan 8.4 09:40:54 10° SW 09:45:26 23° SSE 09:50:14 10° ESE visible
22 Jan 7.2 11:24:14 10° SW 11:30:00 49° SE 11:36:07 10° ENE visible
22 Jan 6.6 13:07:32 10° SW 13:13:23 51° WNW 13:17:11 23° N visible
22 Jan 8.3 14:53:54 10° W 14:55:26 11° W 14:56:58 10° WNW visible
23 Jan 8.5 09:06:33 10° SW 09:10:53 21° SSE 09:15:27 10° ESE visible
23 Jan 7.5 10:50:04 10° SW 10:55:39 41° SE 11:01:34 10° ENE visible
23 Jan 6.4 12:33:17 10° SW 12:39:17 66° WNW 12:43:04 25° NNE visible
23 Jan 8.0 14:18:08 10° WSW 14:21:35 16° WNW 14:23:29 14° NW visible
24 Jan 7.7 10:15:53 10° SSW 10:21:15 34° SSE 10:26:56 10° E visible
24 Jan 6.3 11:59:03 10° SW 12:05:07 83° NW 12:09:04 25° NNE visible
24 Jan 7.7 13:43:15 10° WSW 13:47:42 21° WNW 13:49:30 19° NW visible
25 Jan 7.9 09:41:42 10° SSW 09:46:48 30° SSE 09:52:14 10° E visible
25 Jan 6.5 11:24:52 10° SW 11:30:54 79° SE 11:35:12 22° NE visible
25 Jan 7.4 13:08:38 10° SW 13:13:45 28° WNW 13:15:38 24° NW visible
26 Jan 8.1 09:07:28 10° SW 09:12:20 26° SSE 09:17:29 10° ESE visible
26 Jan 6.7 10:50:41 10° SW 10:56:39 63° SE 11:01:24 18° ENE visible
26 Jan 7.1 12:34:12 10° SW 12:39:45 37° WNW 12:41:51 29° NNW visible
27 Jan 8.2 08:33:10 10° SW 08:37:49 24° SSE 08:42:43 10° ESE visible
27 Jan 7.0 10:16:30 10° SW 10:22:22 51° SE 10:27:41 14° ENE visible
27 Jan 6.8 11:59:52 10° SW 12:05:42 48° WNW 12:08:08 33° N visible
27 Jan 8.4 13:47:03 10° W 13:47:41 10° W 13:48:20 10° WNW visible
28 Jan 7.3 09:42:21 10° SW 09:48:02 42° SE 09:54:00 10° ENE visible
28 Jan 6.5 11:25:35 10° SW 11:31:37 62° WNW 11:34:29 33° N visible
28 Jan 8.2 13:10:38 10° WSW 13:13:51 15° WNW 13:14:57 14° WNW visible
29 Jan 7.6 09:08:10 10° SSW 09:13:37 36° SSE 09:19:24 10° E visible
29 Jan 6.4 10:51:21 10° SW 10:57:27 80° NW 11:00:54 29° NNE visible
29 Jan 7.9 12:35:39 10° WSW 12:39:59 20° WNW 12:41:21 19° WNW visible
30 Jan 7.8 08:33:57 10° SSW 08:39:11 31° SSE 08:44:43 10° E visible
30 Jan 6.4 10:17:09 10° SW 10:23:16 82° SE 10:27:21 24° NE visible
30 Jan 7.6 12:01:00 10° SW 12:06:03 27° WNW 12:07:49 23° NW visible
31 Jan 6.6 09:42:58 10° SW 09:49:01 66° SE 09:53:51 18° NE visible
31 Jan 7.3 11:26:33 10° SW 11:32:04 35° WNW 11:34:19 27° NNW visible
